Flag for Cuba Weather past 2 weeks in Santiago de Cuba, Cuba

Now
82 °F

Passing clouds.


Feels Like: 88 °F
Forecast: 75 / 91 °F
Wind: 5 mph from South

Location: Santiago De Cuba - Oriente

Current Time: Apr 28, 2015 at 12:23:29 AM

Latest Report: Apr 27, 2015 at 11:51 PM


Visibility: 6 mi

Pressure: 29.89 "Hg

Humidity: 74%

Dew point: 73 °F

Location of Santiago de CubaLocation

Historic Weather in Santiago de Cuba — Graph

°F

Santiago de Cuba temperature yesterday

Maximum temperature yesterday: 86 °F (at 11:52 AM)
Minimum temperature yesterday: 75 °F (at 5:50 AM)
Average temperature yesterday: 82 °F

Past Weeks' High & Low Weather Summary

 TemperatureHumidityPressure
High88 °F (Apr 21, 12:50 PM)89% (Apr 16, 1:51 AM)30.09 "Hg (Apr 16, 1:51 AM)
Low70 °F (Apr 16, 6:50 AM)45% (Apr 15, 10:50 AM)29.83 "Hg (Apr 27, 5:50 AM)
Average80 °F70%29.98 "Hg
* Reported Apr 12 10:50 PM — Apr 27 10:51 PM, Santiago de Cuba, Weather by CustomWeather, © 2015

Note: Actual official high and low records may vary slightly from our data, if they occured in-between our weather recording intervals... More about our weather records

Advertising

Santiago de Cuba weather history for previous 24 hours

 ConditionsComfort  
Time TempWeatherWind HumidityBarometerVisibility
10:51 PM
Mon, Apr 27
82 °FPassing clouds.5 mph74%29.89 "Hg6 mi
9:51 PM82 °FPassing clouds.6 mph74%29.89 "Hg6 mi
8:50 PM82 °FPassing clouds.6 mph74%29.89 "Hg6 mi
7:50 PM82 °FPassing clouds.7 mph74%29.86 "Hg6 mi
6:50 PM84 °FPassing clouds.7 mph66%29.83 "Hg6 mi
5:51 PM84 °FPassing clouds.9 mph66%29.83 "Hg6 mi
4:51 PM86 °FPassing clouds.10 mph62%29.83 "Hg6 mi
3:51 PM86 °FPassing clouds.12 mph62%29.86 "Hg6 mi
2:50 PM86 °FPassing clouds.10 mph62%29.86 "Hg6 mi
1:51 PM86 °FPassing clouds.10 mph62%29.89 "Hg6 mi
12:50 PM86 °FPassing clouds.10 mph59%29.89 "Hg6 mi
11:52 AM86 °FPassing clouds.8 mph59%29.92 "Hg6 mi
10:52 AM84 °FScattered clouds.8 mph66%29.92 "Hg6 mi
9:50 AM84 °FScattered clouds.7 mph66%29.89 "Hg6 mi
8:50 AM82 °FPassing clouds.3 mph70%29.89 "Hg6 mi
7:50 AM82 °FPassing clouds.1 mph74%29.86 "Hg6 mi
6:50 AM77 °FPassing clouds.3 mph83%29.86 "Hg6 mi
5:50 AM75 °FPassing clouds.3 mph83%29.83 "Hg6 mi
4:51 AM77 °FPassing clouds.6 mph79%29.86 "Hg6 mi
3:51 AM77 °FPassing clouds.5 mph79%29.86 "Hg6 mi
2:51 AM77 °FPassing clouds.2 mph83%29.86 "Hg6 mi
1:51 AM77 °FPassing clouds.3 mph79%29.89 "Hg6 mi
12:51 AM79 °FPassing clouds.2 mph79%29.89 "Hg6 mi
Weather by CustomWeather, © 2015

See weather overviewHow to use our weather pages